CW1020 Weather Reports


time (UTC)temp
F
wind
direction
speed
knots
gust
knots
rain 1hr
in
rain 24hr
in
rain mn
in
humidity
%
barometer
mb
20260508125002 55 276 0.0 0.9 0.00 0.00 0.00 81 1020.2
20260508124503 56 278 0.0 0.9 0.00 0.00 0.00 80 1020.2
20260508124002 56 279 0.0 0.9 0.00 0.00 0.00 80 1020.1
20260508123502 56 279 0.0 0.9 0.00 0.00 0.00 79 1020.0
20260508123003 56 0 0.0 0.0 0.00 0.00 0.00 79 1019.9
20260508122502 56 0 0.0 0.0 0.00 0.00 0.00 80 1019.9
20260508122003 56 279 0.0 0.9 0.00 0.00 0.00 80 1019.9
20260508121503 56 279 0.0 0.9 0.00 0.00 0.00 80 1020.0
20260508120503 56 0 0.0 0.0 0.00 0.00 0.00 80 1020.0
20260508120003 56 0 0.0 0.0 0.00 0.00 0.00 79 1020.0
20260508115503 56 0 0.0 0.0 0.00 0.00 0.00 79 1020.0
20260508115002 56 279 0.0 1.7 0.00 0.00 0.00 79 1019.9
20260508114503 56 280 0.0 0.9 0.00 0.00 0.00 78 1020.0
20260508113502 56 0 0.0 0.0 0.00 0.00 0.00 79 1019.8
20260508113003 56 276 0.0 0.9 0.00 0.00 0.00 79 1019.8
20260508112502 56 271 0.0 0.9 0.00 0.00 0.00 80 1019.9
20260508112003 56 0 0.0 0.0 0.00 0.00 0.00 80 1019.9
20260508111002 55 270 0.0 0.9 0.00 0.00 0.00 80 1019.9
20260508110503 55 270 0.0 0.9 0.00 0.00 0.00 79 1019.9
20260508110004 55 0 0.0 0.0 0.00 0.00 0.00 79 1019.9
20260508105503 55 270 0.0 0.9 0.00 0.00 0.00 79 1019.9
20260508105002 55 267 0.0 0.9 0.00 0.00 0.00 79 1019.9
20260508104503 55 0 0.0 0.0 0.00 0.00 0.00 79 1019.9
20260508104003 55 267 0.9 0.9 0.00 0.00 0.00 78 1019.9
20260508103003 55 260 0.9 2.6 0.00 0.00 0.00 78 1020.1
20260508102503 55 268 0.9 1.7 0.00 0.00 0.00 79 1020.1
20260508102003 55 276 0.0 2.6 0.00 0.00 0.00 78 1020.1
20260508101503 55 281 0.0 0.9 0.00 0.00 0.00 78 1020.1
20260508101002 55 0 0.0 0.0 0.00 0.00 0.00 78 1020.2
20260508100503 55 0 0.0 0.0 0.00 0.00 0.00 77 1020.1
20260508100003 55 282 0.0 0.9 0.00 0.00 0.00 77 1020.1
20260508095503 56 282 0.0 0.9 0.00 0.00 0.00 76 1019.8
20260508095003 56 0 0.0 0.0 0.00 0.00 0.00 75 1019.9
20260508093503 56 0 0.0 0.0 0.00 0.00 0.00 77 1020.0
20260508093003 56 0 0.0 0.0 0.00 0.00 0.00 77 1020.0
20260508092502 56 282 0.0 0.9 0.00 0.00 0.00 76 1020.0
20260508092003 56 283 0.0 0.9 0.00 0.00 0.00 76 1020.0
20260508091503 56 0 0.0 0.0 0.00 0.00 0.00 77 1020.0
20260508091002 56 0 0.0 0.0 0.00 0.00 0.00 76 1020.0
20260508090503 56 283 0.0 0.9 0.00 0.00 0.00 76 1020.1
20260508090003 56 283 0.0 0.9 0.00 0.00 0.00 76 1020.1
20260508084503 56 279 0.0 0.9 0.00 0.00 0.00 74 1020.1
20260508084003 56 0 0.0 0.0 0.00 0.00 0.00 75 1020.1
20260508083503 56 0 0.0 0.0 0.00 0.00 0.00 76 1020.3
20260508083003 56 0 0.0 0.0 0.00 0.00 0.00 76 1020.3
20260508082503 56 0 0.0 0.0 0.00 0.00 0.00 75 1020.3
20260508082003 56 279 0.0 1.7 0.00 0.00 0.00 76 1020.3
20260508081503 56 0 0.0 0.0 0.00 0.00 0.00 75 1020.4
20260508080503 57 280 0.0 0.9 0.00 0.00 0.00 74 1020.4
20260508080003 57 0 0.0 0.0 0.00 0.00 0.00 74 1020.6
20260508075503 57 0 0.0 0.0 0.00 0.00 0.00 73 1020.6
20260508075002 58 0 0.0 0.0 0.00 0.00 0.00 71 1020.5
20260508074003 58 303 0.0 0.9 0.00 0.00 0.00 71 1020.5
20260508073503 58 0 0.0 0.0 0.00 0.00 0.00 69 1020.5
20260508073003 59 0 0.0 0.0 0.00 0.00 0.00 69 1020.6
20260508072503 59 0 0.0 0.0 0.00 0.00 0.00 71 1020.5
20260508072003 59 0 0.0 0.0 0.00 0.00 0.00 69 1020.5
20260508071503 60 0 0.0 0.0 0.00 0.00 0.00 69 1020.4
20260508070503 60 304 0.9 1.7 0.00 0.00 0.00 66 1020.3
20260508070004 60 305 0.9 0.9 0.00 0.00 0.00 68 1020.4
20260508065503 60 305 0.9 2.6 0.00 0.00 0.00 68 1020.4
20260508064002 61 0 0.0 0.0 0.00 0.00 0.00 68 1020.4
20260508063503 61 297 0.0 3.5 0.00 0.00 0.00 67 1020.5
20260508063003 61 0 0.0 0.0 0.00 0.00 0.00 66 1020.4
20260508062503 61 0 0.0 0.0 0.00 0.00 0.00 65 1020.5
20260508062004 62 0 0.0 0.0 0.00 0.00 0.00 67 1020.5
20260508061503 62 294 0.0 1.7 0.00 0.00 0.00 65 1020.5
20260508061003 62 0 0.0 0.0 0.00 0.00 0.00 66 1020.5
20260508060502 62 0 0.0 0.0 0.00 0.00 0.00 65 1020.4
20260508060005 62 0 0.0 0.0 0.00 0.00 0.00 65 1020.5
20260508055503 62 290 0.0 1.7 0.00 0.00 0.00 65 1020.3
20260508055003 62 0 0.0 0.0 0.00 0.00 0.00 65 1020.3
20260508054503 62 284 0.0 1.7 0.00 0.00 0.00 64 1020.3
20260508054003 62 283 0.0 1.7 0.00 0.00 0.00 64 1020.4
20260508053004 62 280 0.9 3.5 0.00 0.00 0.00 64 1020.4
20260508052003 62 274 1.7 3.5 0.00 0.00 0.00 64 1020.4
20260508051503 62 283 0.9 5.2 0.00 0.00 0.00 64 1020.5
20260508051003 62 244 0.9 6.1 0.00 0.00 0.00 64 1020.5
20260508050503 62 0 0.9 0.0 0.00 0.00 0.00 64 1020.5
20260508050003 62 272 1.7 3.5 0.00 0.00 0.00 64 1020.5
20260508045504 62 275 1.7 3.5 0.00 0.00 0.00 65 1020.5
20260508044503 62 239 1.7 2.6 0.00 0.00 0.00 64 1020.4
20260508043503 62 229 1.7 3.5 0.00 0.00 0.00 64 1020.3
20260508043003 62 241 1.7 2.6 0.00 0.00 0.00 64 1020.3
20260508042503 63 244 2.6 2.6 0.00 0.00 0.00 64 1020.2
20260508042003 63 244 3.5 2.6 0.00 0.00 0.00 64 1020.2
20260508041003 63 239 2.6 4.3 0.00 0.00 0.00 63 1020.1
20260508040503 63 250 2.6 3.5 0.00 0.00 0.00 63 1020.1
20260508040004 63 252 2.6 3.5 0.00 0.00 0.00 63 1020.0
20260508035503 63 250 2.6 4.3 0.00 0.00 0.00 62 1020.0
20260508034503 64 254 3.5 3.5 0.00 0.00 0.00 61 1019.9
20260508034004 64 252 3.5 4.3 0.00 0.00 0.00 61 1019.9
20260508032503 65 270 4.3 6.1 0.00 0.00 0.00 60 1019.6
20260508032003 65 267 3.5 6.1 0.00 0.00 0.00 60 1019.6
20260508031503 65 274 2.6 5.2 0.00 0.00 0.00 59 1019.6
20260508031004 65 276 3.5 3.5 0.00 0.00 0.00 59 1019.6
20260508030503 66 268 4.3 5.2 0.00 0.00 0.00 59 1019.5
20260508030004 66 265 3.5 6.1 0.00 0.00 0.00 58 1019.5
20260508025503 66 270 3.5 5.2 0.00 0.00 0.00 58 1019.5
20260508025003 66 272 1.7 6.1 0.00 0.00 0.00 57 1019.4
20260508024003 67 284 1.7 1.7 0.00 0.00 0.00 57 1019.2
20260508023502 67 282 1.7 2.6 0.00 0.00 0.00 57 1019.3
20260508023003 68 283 1.7 5.2 0.00 0.00 0.00 57 1019.3
20260508021504 69 270 3.5 6.1 0.00 0.00 0.00 55 1019.3
20260508021003 69 279 3.5 6.1 0.00 0.00 0.00 54 1019.3
20260508020503 70 293 4.3 7.0 0.00 0.00 0.00 53 1019.3
20260508015503 70 273 6.1 8.7 0.00 0.00 0.00 52 1019.0
20260508015003 70 298 5.2 7.0 0.00 0.00 0.00 53 1018.9
20260508014503 71 303 5.2 9.6 0.00 0.00 0.00 53 1019.0
20260508014004 71 308 5.2 8.7 0.00 0.00 0.00 52 1018.9
20260508013503 71 301 6.1 7.8 0.00 0.00 0.00 52 1018.8
20260508013003 71 300 6.1 9.6 0.00 0.00 0.00 51 1018.7
20260508012503 71 308 6.1 10.4 0.00 0.00 0.00 51 1018.7
20260508012003 72 306 7.0 9.6 0.00 0.00 0.00 51 1019.0
20260508011503 72 305 7.0 10.4 0.00 0.00 0.00 51 1019.0
20260508011004 72 307 6.1 13.0 0.00 0.00 0.00 50 1019.0
20260508010503 72 300 7.0 8.7 0.00 0.00 0.00 50 1019.1
20260508010003 72 309 7.8 10.4 0.00 0.00 0.00 49 1019.1
20260508005503 72 306 7.8 11.3 0.00 0.00 0.00 49 1018.8
20260508005003 73 298 7.8 10.4 0.00 0.00 0.00 49 1018.8
20260508004503 73 290 7.0 11.3 0.00 0.00 0.00 49 1018.8
20260508004003 73 312 7.8 12.2 0.00 0.00 0.00 48 1018.8
20260508003004 73 307 7.8 14.8 0.00 0.00 0.00 47 1018.8
20260508002503 73 306 7.8 10.4 0.00 0.00 0.00 48 1018.8
20260508002003 73 308 8.7 13.9 0.00 0.00 0.00 47 1018.8
20260508001003 73 306 8.7 15.6 0.00 0.00 0.00 47 1018.8
20260508000504 73 306 9.6 13.9 0.00 0.00 0.00 47 1018.8
20260508000003 73 304 9.6 13.0 0.00 0.00 0.00 46 1018.8
20260507235504 73 309 9.6 11.3 0.00 0.00 0.00 47 1018.8
20260507235003 74 311 9.6 13.9 0.00 0.00 0.00 45 1018.7
20260507234503 74 311 10.4 16.5 0.00 0.00 0.00 45 1018.6
20260507234004 74 298 9.6 13.0 0.00 0.00 0.00 45 1018.6
20260507233503 74 302 9.6 17.4 0.00 0.00 0.00 44 1018.6
20260507233005 74 304 9.6 13.9 0.00 0.00 0.00 44 1018.7
20260507232503 74 300 10.4 15.6 0.00 0.00 0.00 45 1018.7
20260507232005 74 303 10.4 15.6 0.00 0.00 0.00 44 1018.7
20260507231503 74 306 9.6 14.8 0.00 0.00 0.00 44 1018.6
20260507231003 75 313 8.7 13.9 0.00 0.00 0.00 43 1018.7
20260507230004 75 297 9.6 11.3 0.00 0.00 0.00 43 1018.7
20260507225503 75 316 8.7 12.2 0.00 0.00 0.00 43 1018.7
20260507225004 76 313 7.0 15.6 0.00 0.00 0.00 42 1018.7
20260507224004 76 289 6.1 9.6 0.00 0.00 0.00 42 1018.9
20260507223503 76 305 7.8 9.6 0.00 0.00 0.00 43 1019.0
20260507223003 76 302 7.8 11.3 0.00 0.00 0.00 43 1019.0
20260507222503 76 318 7.8 14.8 0.00 0.00 0.00 43 1019.1
20260507222004 76 306 7.0 11.3 0.00 0.00 0.00 43 1019.1
20260507221503 76 315 7.0 13.9 0.00 0.00 0.00 43 1019.3
20260507221005 75 307 7.8 8.7 0.00 0.00 0.00 44 1019.3
20260507220503 75 307 7.8 9.6 0.00 0.00 0.00 44 1019.3
20260507220003 75 312 7.8 13.0 0.00 0.00 0.00 44 1019.4
20260507215503 74 323 8.7 14.8 0.00 0.00 0.00 45 1019.2
20260507215003 74 315 8.7 14.8 0.00 0.00 0.00 44 1019.3
20260507214504 74 314 8.7 12.2 0.00 0.00 0.00 45 1019.4
20260507214003 74 320 8.7 13.9 0.00 0.00 0.00 46 1019.5
20260507213504 74 314 7.8 13.0 0.00 0.00 0.00 47 1019.5
20260507213003 73 316 7.8 13.9 0.00 0.00 0.00 47 1019.6
20260507212502 73 318 7.8 13.0 0.00 0.00 0.00 48 1019.5
20260507212002 72 324 7.0 13.9 0.00 0.00 0.00 49 1019.6
20260507211502 72 329 7.0 13.0 0.00 0.00 0.00 49 1019.6
20260507211002 72 319 7.8 10.4 0.00 0.00 0.00 50 1019.7
20260507210002 72 324 7.8 13.9 0.00 0.00 0.00 50 1019.8
20260507205502 71 315 8.7 13.0 0.00 0.00 0.00 51 1019.8
20260507205002 71 321 11.3 11.3 0.00 0.00 0.00 52 1019.9
20260507204502 71 321 11.3 15.6 0.00 0.00 0.00 52 1019.8
20260507204002 71 317 9.6 15.6 0.00 0.00 0.00 51 1020.0
20260507203502 71 315 9.6 14.8 0.00 0.00 0.00 51 1019.9
20260507203002 71 307 9.6 12.2 0.00 0.00 0.00 51 1019.9
20260507202502 71 323 10.4 16.5 0.00 0.00 0.00 51 1020.0
20260507202002 71 316 11.3 15.6 0.00 0.00 0.00 51 1020.1
20260507201002 71 318 10.4 18.2 0.00 0.00 0.00 51 1020.1
20260507200502 71 313 10.4 16.5 0.00 0.00 0.00 52 1020.2
20260507200002 71 317 9.6 16.5 0.00 0.00 0.00 51 1020.0
20260507195502 71 324 11.3 15.6 0.00 0.00 0.00 52 1020.0
20260507195002 70 320 11.3 15.6 0.00 0.00 0.00 52 1020.0
20260507194002 71 318 10.4 14.8 0.00 0.00 0.00 51 1020.0
20260507193502 70 322 9.6 15.6 0.00 0.00 0.00 51 1020.0
20260507193002 70 319 9.6 14.8 0.00 0.00 0.00 51 1020.0
20260507192503 70 322 9.6 15.6 0.00 0.00 0.00 51 1020.1
20260507192002 70 318 9.6 14.8 0.00 0.00 0.00 51 1020.0
20260507191502 70 317 9.6 13.0 0.00 0.00 0.00 52 1020.2
20260507191002 70 313 9.6 14.8 0.00 0.00 0.00 52 1020.2
20260507190502 70 319 8.7 15.6 0.00 0.00 0.00 51 1020.1
20260507190004 70 316 8.7 13.9 0.00 0.00 0.00 52 1020.3
20260507185502 70 316 9.6 13.9 0.00 0.00 0.00 52 1020.4
20260507185002 70 313 8.7 15.6 0.00 0.00 0.00 52 1020.4
20260507184504 70 317 7.8 10.4 0.00 0.00 0.00 52 1020.4
20260507184003 70 323 7.0 12.2 0.00 0.00 0.00 52 1020.4
20260507183502 70 322 7.0 11.3 0.00 0.00 0.00 52 1020.6
20260507182502 70 319 6.1 10.4 0.00 0.00 0.00 52 1020.6
20260507181503 70 329 5.2 13.0 0.00 0.00 0.00 52 1020.7
20260507181003 69 326 5.2 9.6 0.00 0.00 0.00 52 1020.8
20260507180503 69 315 6.1 8.7 0.00 0.00 0.00 52 1020.9
20260507180002 69 314 7.0 9.6 0.00 0.00 0.00 52 1021.0
20260507175502 68 316 7.8 11.3 0.00 0.00 0.00 53 1020.7
20260507175002 68 319 6.1 11.3 0.00 0.00 0.00 52 1020.7
20260507174503 68 321 6.1 11.3 0.00 0.00 0.00 53 1020.6
20260507174003 67 320 7.0 9.6 0.00 0.00 0.00 54 1020.6
20260507173502 67 318 7.0 13.9 0.00 0.00 0.00 54 1020.7
20260507173004 67 320 7.8 10.4 0.00 0.00 0.00 54 1020.7
20260507172502 66 316 7.8 11.3 0.00 0.00 0.00 55 1020.7
20260507172003 66 319 7.0 11.3 0.00 0.00 0.00 54 1020.8
20260507171502 66 321 7.0 12.2 0.00 0.00 0.00 56 1020.7
20260507171002 66 322 7.0 9.6 0.00 0.00 0.00 55 1020.8
20260507170502 65 323 6.1 10.4 0.00 0.00 0.00 55 1020.7
20260507170002 65 322 7.0 10.4 0.00 0.00 0.00 57 1020.8
20260507165503 65 320 6.1 9.6 0.00 0.00 0.00 56 1020.8
20260507165003 65 324 5.2 10.4 0.00 0.00 0.00 56 1020.8
20260507164502 65 318 5.2 8.7 0.00 0.00 0.00 57 1020.9
20260507163503 64 322 2.6 9.6 0.00 0.00 0.00 57 1021.0
20260507162503 63 325 2.6 7.0 0.00 0.00 0.00 60 1021.0
20260507162003 63 332 2.6 7.0 0.00 0.00 0.00 60 1021.0
20260507161503 62 326 2.6 3.5 0.00 0.00 0.00 62 1021.1
20260507161003 62 328 1.7 5.2 0.00 0.00 0.00 63 1021.1
20260507160502 61 340 0.9 2.6 0.00 0.00 0.00 65 1021.2
20260507160003 61 328 0.9 2.6 0.00 0.00 0.00 67 1021.3
20260507155503 60 316 1.7 3.5 0.00 0.00 0.00 68 1021.1
20260507155002 60 323 1.7 4.3 0.00 0.00 0.00 69 1021.2
20260507154502 59 330 0.9 3.5 0.00 0.00 0.00 71 1021.2
20260507154003 58 330 0.9 3.5 0.00 0.00 0.00 74 1021.2
20260507153502 57 0 0.0 0.0 0.00 0.00 0.00 75 1021.2
20260507153003 56 124 0.0 1.7 0.00 0.00 0.00 78 1021.3
20260507152503 55 127 0.9 1.7 0.00 0.00 0.00 80 1021.4
20260507152002 54 134 0.0 1.7 0.00 0.00 0.00 82 1021.3
20260507151502 53 0 0.0 0.0 0.00 0.00 0.00 85 1021.4
20260507151003 52 0 0.0 0.0 0.00 0.00 0.00 86 1021.3
20260507150503 51 140 0.0 0.9 0.00 0.00 0.00 87 1021.3
20260507145502 50 0 0.0 0.0 0.00 0.00 0.00 89 1021.4
20260507145003 49 0 0.0 0.0 0.00 0.00 0.00 89 1021.4
20260507144502 49 0 0.0 0.0 0.00 0.00 0.00 89 1021.4
20260507144003 49 142 0.0 0.9 0.00 0.00 0.00 90 1021.6
20260507143502 48 143 0.0 0.9 0.00 0.00 0.00 90 1021.5
20260507142503 47 0 0.0 0.0 0.00 0.00 0.00 90 1021.5
20260507142002 46 0 0.0 0.0 0.00 0.00 0.00 89 1021.5
20260507141502 45 144 0.9 0.9 0.00 0.00 0.00 89 1021.2
20260507141003 45 143 0.0 1.7 0.00 0.00 0.00 88 1021.2
20260507140005 44 0 0.0 0.0 0.00 0.00 0.00 87 1021.2
20260507135503 44 128 0.0 1.7 0.00 0.00 0.00 86 1021.1
20260507135003 44 124 0.0 0.9 0.00 0.00 0.00 86 1020.9
20260507134503 44 0 0.9 0.0 0.00 0.00 0.00 85 1020.9
20260507133503 44 131 0.0 1.7 0.00 0.00 0.00 85 1020.7
20260507133002 44 139 0.0 0.9 0.00 0.00 0.00 84 1020.7
20260507132003 45 139 0.0 1.7 0.00 0.00 0.00 84 1020.7
20260507130503 45 151 0.9 1.7 0.00 0.00 0.00 84 1020.4
20260507130002 45 139 0.9 1.7 0.00 0.00 0.00 84 1020.4
20260507125502 45 142 0.9 1.7 0.00 0.00 0.00 84 1020.7